Tracking 18816 objects as of 18-October-2017
HD Live streaming from Space Station
objects crossing your sky now

TANSUO 2

Track TANSUO 2 now!
10-day predictions
TANSUO 2 is classified as:


NORAD ID: 28479
Int'l Code: 2004-046A
Perigee: 689.7 km
Apogee: 706.1 km
Inclination: 98.2 °
Period: 98.6 minutes
Semi major axis: 7068 km
RCS: 1.44 m2 (large)
Launch date: November 18, 2004
Source: People's Republic of China (PRC)
Launch site: Xichang Space Center, China (XSC)
aabbcc
Your satellite tracking list
Your tracking list is empty





NASA's NSSDC Master Catalog

Two Line Element Set (TLE):
1 28479U 04046A   17291.48333909  .00000178  00000-0  46131-4 0  9998
2 28479  98.2092 307.6806 0011614 102.5654 257.6846 14.60742074687529
Source of the keplerian elements: AFSPC